| time (UTC) | temp F | wind direction | speed MPH | gust MPH | rain 1hr in | rain 24hr in | rain mn in | humidity % | barometer mb |
| 20260507210106 | 49 | 57 | 0.0 | 0.0 | 0.00 | 0.11 | 0.00 | 57 | 1010.2 |
| 20260507204549 | 49 | 6 | 0.0 | 0.0 | 0.00 | 0.11 | 0.00 | 59 | 1010.2 |
| 20260507203046 | 49 | 3 | 0.0 | 0.0 | 0.00 | 0.11 | 0.00 | 57 | 1010.2 |
| 20260507201545 | 49 | 32 | 0.0 | 0.0 | 0.00 | 0.11 | 0.00 | 59 | 1010.2 |
| 20260507200052 | 48 | 25 | 0.0 | 1.0 | 0.00 | 0.11 | 0.00 | 60 | 1010.4 |
| 20260507194550 | 48 | 39 | 0.0 | 0.0 | 0.00 | 0.11 | 0.00 | 60 | 1010.6 |
| 20260507193042 | 48 | 8 | 0.0 | 0.0 | 0.00 | 0.11 | 0.00 | 60 | 1010.6 |
| 20260507191544 | 48 | 8 | 0.0 | 0.0 | 0.00 | 0.11 | 0.00 | 62 | 1010.7 |
| 20260507190047 | 49 | 49 | 0.0 | 0.0 | 0.00 | 0.11 | 0.00 | 61 | 1010.8 |
| 20260507184544 | 50 | 35 | 0.0 | 1.0 | 0.00 | 0.11 | 0.00 | 60 | 1010.9 |
| 20260507183048 | 51 | 54 | 0.0 | 1.0 | 0.00 | 0.11 | 0.00 | 60 | 1010.9 |
| 20260507181538 | 53 | 54 | 0.0 | 0.0 | 0.00 | 0.11 | 0.00 | 59 | 1010.8 |
| 20260507180035 | 52 | 65 | 0.0 | 0.0 | 0.00 | 0.11 | 0.00 | 60 | 1011.0 |
| 20260507174534 | 51 | 13 | 0.0 | 1.0 | 0.00 | 0.11 | 0.00 | 61 | 1011.1 |
| 20260507173042 | 50 | 323 | 0.0 | 0.0 | 0.00 | 0.11 | 0.00 | 62 | 1011.3 |
| 20260507171529 | 50 | 61 | 0.0 | 0.0 | 0.00 | 0.11 | 0.00 | 61 | 1011.4 |
| 20260507170030 | 52 | 13 | 0.0 | 2.0 | 0.00 | 0.11 | 0.00 | 59 | 1011.4 |
| 20260507164535 | 51 | 341 | 0.0 | 2.0 | 0.00 | 0.11 | 0.00 | 60 | 1011.5 |
| 20260507163026 | 52 | 11 | 0.0 | 1.0 | 0.00 | 0.11 | 0.00 | 56 | 1011.7 |
| 20260507161523 | 51 | 174 | 0.0 | 2.0 | 0.00 | 0.11 | 0.00 | 56 | 1011.7 |
| 20260507160026 | 50 | 66 | 0.0 | 0.0 | 0.00 | 0.11 | 0.00 | 59 | 1011.8 |
| 20260507154519 | 49 | 239 | 0.0 | 0.0 | 0.00 | 0.11 | 0.00 | 59 | 1012.0 |
| 20260507153015 | 48 | 172 | 0.0 | 0.0 | 0.00 | 0.11 | 0.00 | 62 | 1012.2 |
| 20260507151513 | 47 | 201 | 0.0 | 0.0 | 0.00 | 0.11 | 0.00 | 62 | 1012.3 |
| 20260507150011 | 47 | 23 | 0.0 | 0.0 | 0.00 | 0.11 | 0.00 | 63 | 1012.3 |
| 20260507144508 | 46 | 212 | 0.0 | 0.0 | 0.00 | 0.12 | 0.00 | 68 | 1012.5 |
| 20260507143016 | 45 | 200 | 0.0 | 0.0 | 0.00 | 0.12 | 0.00 | 67 | 1012.4 |
| 20260507141507 | 45 | 330 | 0.0 | 0.0 | 0.00 | 0.12 | 0.00 | 66 | 1012.6 |
| 20260507134557 | 44 | 45 | 0.0 | 0.0 | 0.00 | 0.13 | 0.00 | 72 | 1013.0 |
| 20260507133055 | 43 | 9 | 0.0 | 0.0 | 0.00 | 0.13 | 0.00 | 73 | 1013.0 |
| 20260507131600 | 42 | 9 | 0.0 | 0.0 | 0.00 | 0.13 | 0.00 | 75 | 1013.2 |
| 20260507130055 | 42 | 51 | 0.0 | 0.0 | 0.00 | 0.13 | 0.00 | 75 | 1013.3 |
| 20260507124600 | 42 | 135 | 0.0 | 0.0 | 0.00 | 0.15 | 0.00 | 81 | 1013.1 |
| 20260507123047 | 41 | 30 | 0.0 | 0.0 | 0.00 | 0.15 | 0.00 | 90 | 1013.1 |
| 20260507121545 | 41 | 41 | 0.0 | 0.0 | 0.00 | 0.15 | 0.00 | 96 | 1013.0 |
| 20260507120044 | 40 | 41 | 0.0 | 0.0 | 0.00 | 0.15 | 0.00 | 97 | 1013.0 |
| 20260507114602 | 40 | 138 | 0.0 | 0.0 | 0.00 | 0.18 | 0.00 | 98 | 1013.0 |
| 20260507113102 | 39 | 141 | 0.0 | 0.0 | 0.00 | 0.18 | 0.00 | 97 | 1012.6 |
| 20260507111545 | 38 | 141 | 0.0 | 0.0 | 0.00 | 0.18 | 0.00 | 97 | 1012.8 |
| 20260507110040 | 38 | 141 | 0.0 | 0.0 | 0.00 | 0.18 | 0.00 | 97 | 1012.9 |
| 20260507104542 | 37 | 141 | 0.0 | 0.0 | 0.00 | 0.24 | 0.00 | 97 | 1012.6 |
| 20260507103048 | 36 | 297 | 0.0 | 0.0 | 0.00 | 0.24 | 0.00 | 97 | 1012.5 |
| 20260507101538 | 36 | 297 | 0.0 | 0.0 | 0.00 | 0.24 | 0.00 | 97 | 1012.2 |
| 20260507100037 | 36 | 297 | 0.0 | 0.0 | 0.00 | 0.24 | 0.00 | 97 | 1012.3 |
| 20260507094538 | 35 | 297 | 0.0 | 0.0 | 0.00 | 0.30 | 0.00 | 96 | 1012.3 |
| 20260507093036 | 35 | 297 | 0.0 | 0.0 | 0.00 | 0.30 | 0.00 | 96 | 1012.4 |
| 20260507091540 | 35 | 297 | 0.0 | 0.0 | 0.00 | 0.30 | 0.00 | 96 | 1012.4 |
| 20260507090034 | 35 | 309 | 0.0 | 0.0 | 0.00 | 0.30 | 0.00 | 96 | 1012.1 |
| 20260507084542 | 35 | 310 | 0.0 | 0.0 | 0.00 | 0.35 | 0.00 | 96 | 1012.3 |
| 20260507083032 | 35 | 309 | 0.0 | 0.0 | 0.00 | 0.35 | 0.00 | 95 | 1012.4 |
| 20260507081537 | 36 | 310 | 0.0 | 0.0 | 0.00 | 0.35 | 0.00 | 95 | 1012.5 |
| 20260507080028 | 36 | 309 | 0.0 | 0.0 | 0.00 | 0.35 | 0.00 | 95 | 1012.0 |
| 20260507074526 | 37 | 310 | 0.0 | 0.0 | 0.00 | 0.48 | 0.00 | 95 | 1012.4 |
| 20260507073022 | 38 | 309 | 0.0 | 0.0 | 0.00 | 0.48 | 0.00 | 95 | 1012.4 |
| 20260507071520 | 38 | 309 | 0.0 | 0.0 | 0.00 | 0.48 | 0.00 | 95 | 1012.7 |
| 20260507070017 | 39 | 309 | 0.0 | 0.0 | 0.00 | 0.48 | 0.00 | 95 | 1012.6 |
| 20260507064516 | 39 | 309 | 0.0 | 0.0 | 0.00 | 0.63 | 0.00 | 95 | 1012.4 |
| 20260507063016 | 40 | 310 | 0.0 | 0.0 | 0.00 | 0.63 | 0.00 | 95 | 1012.3 |
| 20260507061512 | 40 | 309 | 0.0 | 0.0 | 0.00 | 0.63 | 0.00 | 94 | 1012.3 |
| 20260507060011 | 40 | 309 | 0.0 | 0.0 | 0.00 | 0.63 | 0.00 | 94 | 1012.5 |
| 20260507054509 | 41 | 309 | 0.0 | 0.0 | 0.00 | 0.73 | 0.00 | 94 | 1012.7 |
| 20260507053006 | 41 | 310 | 0.0 | 0.0 | 0.00 | 0.73 | 0.00 | 94 | 1012.8 |
| 20260507051505 | 41 | 311 | 0.0 | 0.0 | 0.00 | 0.73 | 0.00 | 93 | 1012.8 |
| 20260507050003 | 41 | 311 | 0.0 | 0.0 | 0.00 | 0.73 | 0.00 | 93 | 1013.1 |
| 20260507044501 | 41 | 311 | 0.0 | 0.0 | 0.00 | 0.78 | 0.00 | 94 | 1012.9 |
| 20260507043127 | 41 | 150 | 0.0 | 0.0 | 0.00 | 0.78 | 0.00 | 95 | 1012.9 |
| 20260507041601 | 42 | 86 | 0.0 | 0.0 | 0.00 | 0.78 | 0.00 | 95 | 1012.8 |
| 20260507040056 | 42 | 110 | 0.0 | 0.0 | 0.00 | 0.78 | 0.00 | 96 | 1012.7 |
| 20260507034556 | 42 | 101 | 0.0 | 0.0 | 0.00 | 0.81 | 0.78 | 96 | 1012.6 |
| 20260507033054 | 42 | 144 | 0.0 | 0.0 | 0.00 | 0.81 | 0.78 | 96 | 1012.8 |
| 20260507031553 | 42 | 164 | 0.0 | 0.0 | 0.00 | 0.81 | 0.78 | 96 | 1012.5 |
| 20260507030052 | 42 | 164 | 0.0 | 0.0 | 0.00 | 0.81 | 0.78 | 96 | 1012.5 |
| 20260507024555 | 42 | 175 | 0.0 | 0.0 | 0.00 | 0.83 | 0.78 | 96 | 1012.3 |
| 20260507023104 | 42 | 169 | 0.0 | 0.0 | 0.00 | 0.83 | 0.78 | 96 | 1012.4 |
| 20260507021551 | 42 | 202 | 0.0 | 0.0 | 0.00 | 0.83 | 0.78 | 96 | 1012.4 |
| 20260507020057 | 42 | 193 | 0.0 | 0.0 | 0.00 | 0.83 | 0.78 | 96 | 1012.6 |
| 20260507014549 | 42 | 160 | 0.0 | 0.0 | 0.00 | 0.87 | 0.78 | 95 | 1012.5 |
| 20260507013048 | 42 | 154 | 0.0 | 0.0 | 0.00 | 0.87 | 0.78 | 95 | 1012.3 |
| 20260507011549 | 42 | 336 | 0.0 | 0.0 | 0.01 | 0.87 | 0.78 | 95 | 1012.5 |
| 20260507010046 | 43 | 271 | 0.0 | 0.0 | 0.03 | 0.87 | 0.78 | 95 | 1012.3 |
| 20260507004544 | 43 | 14 | 0.0 | 0.0 | 0.05 | 0.90 | 0.78 | 95 | 1012.1 |
| 20260507003041 | 43 | 360 | 0.0 | 0.0 | 0.07 | 0.90 | 0.78 | 94 | 1011.3 |
| 20260507001605 | 44 | 25 | 0.0 | 0.0 | 0.08 | 0.89 | 0.77 | 93 | 1011.4 |
| 20260507000042 | 45 | 312 | 0.0 | 5.0 | 0.08 | 0.87 | 0.75 | 92 | 1011.4 |
| 20260506234535 | 46 | 66 | 0.0 | 0.0 | 0.06 | 0.91 | 0.73 | 93 | 1010.9 |
| 20260506233133 | 47 | 66 | 0.0 | 0.0 | 0.04 | 0.89 | 0.71 | 91 | 1010.7 |
| 20260506231531 | 47 | 66 | 0.0 | 0.0 | 0.02 | 0.87 | 0.69 | 90 | 1010.4 |
| 20260506230048 | 48 | 66 | 0.0 | 0.0 | 0.00 | 0.85 | 0.67 | 88 | 1010.2 |
| 20260506224529 | 48 | 66 | 0.0 | 0.0 | 0.00 | 0.90 | 0.67 | 86 | 1010.0 |
| 20260506223032 | 48 | 66 | 0.0 | 0.0 | 0.00 | 0.90 | 0.67 | 86 | 1010.0 |
| 20260506221528 | 48 | 60 | 0.0 | 0.0 | 0.00 | 0.90 | 0.67 | 85 | 1009.9 |
| 20260506220034 | 48 | 60 | 0.0 | 0.0 | 0.00 | 0.90 | 0.67 | 86 | 1009.9 |
| 20260506214527 | 48 | 60 | 0.0 | 0.0 | 0.00 | 0.90 | 0.67 | 85 | 1009.6 |
| 20260506213027 | 48 | 74 | 0.0 | 0.0 | 0.00 | 0.90 | 0.67 | 84 | 1009.7 |
| 20260506211526 | 48 | 75 | 0.0 | 0.0 | 0.00 | 0.90 | 0.67 | 83 | 1009.8 |